TimePST,TemperatureF,Dew PointF,Humidity,Sea Level PressureIn,VisibilityMPH,Wind Direction,Wind SpeedMPH,Gust SpeedMPH,PrecipitationIn,Events,Conditions,WindDirDegrees,DateUTC
12:00 AM,8.6,5.0,85,30.09,5.0,West,3.5,-,N/A,,Overcast,260,2012-12-31 08:00:00
12:20 AM,8.6,5.0,85,30.09,6.0,West,3.5,-,N/A,,Overcast,260,2012-12-31 08:20:00
12:40 AM,8.6,5.0,85,30.09,5.0,Calm,Calm,-,N/A,,Overcast,0,2012-12-31 08:40:00
1:00 AM,8.6,5.0,85,30.09,5.0,Calm,Calm,-,N/A,,Overcast,0,2012-12-31 09:00:00
1:20 AM,8.6,5.0,85,30.10,7.0,Calm,Calm,-,N/A,,Overcast,0,2012-12-31 09:20:00
1:40 AM,8.6,5.0,85,30.11,7.0,Calm,Calm,-,N/A,,Overcast,0,2012-12-31 09:40:00
2:00 AM,10.4,6.8,85,30.11,7.0,Calm,Calm,-,N/A,,Overcast,0,2012-12-31 10:00:00
2:20 AM,8.6,6.8,92,30.11,8.0,Calm,Calm,-,N/A,,Overcast,0,2012-12-31 10:20:00
2:40 AM,8.6,5.0,85,30.11,8.0,Calm,Calm,-,N/A,,Overcast,0,2012-12-31 10:40:00
3:00 AM,5.0,1.4,85,30.11,7.0,Calm,Calm,-,N/A,,Overcast,0,2012-12-31 11:00:00
3:20 AM,6.8,1.4,79,30.12,8.0,Calm,Calm,-,N/A,,Overcast,0,2012-12-31 11:20:00
3:40 AM,6.8,5.0,92,30.11,7.0,Calm,Calm,-,N/A,,Overcast,0,2012-12-31 11:40:00
4:00 AM,6.8,1.4,79,30.11,8.0,Calm,Calm,-,N/A,,Overcast,0,2012-12-31 12:00:00
4:20 AM,5.0,1.4,85,30.11,7.0,Calm,Calm,-,N/A,,Overcast,0,2012-12-31 12:20:00
5:00 AM,5.0,-0.4,78,30.12,7.0,Calm,Calm,-,N/A,,Overcast,0,2012-12-31 13:00:00
5:20 AM,5.0,-0.4,78,30.13,10.0,Calm,Calm,-,N/A,,Overcast,0,2012-12-31 13:20:00
5:40 AM,3.2,-0.4,85,30.14,7.0,SW,3.5,-,N/A,,Overcast,220,2012-12-31 13:40:00
6:00 AM,-0.4,-4.0,85,30.15,7.0,Calm,Calm,-,N/A,,Overcast,0,2012-12-31 14:00:00
6:20 AM,-0.4,-4.0,85,30.16,8.0,Calm,Calm,-,N/A,,Overcast,0,2012-12-31 14:20:00
6:40 AM,-0.4,-4.0,85,30.17,9.0,Calm,Calm,-,N/A,,Overcast,0,2012-12-31 14:40:00
7:00 AM,-0.4,-2.2,92,30.18,6.0,Calm,Calm,-,N/A,,Overcast,0,2012-12-31 15:00:00
7:20 AM,1.4,-2.2,85,30.17,4.0,Calm,Calm,-,N/A,,Overcast,0,2012-12-31 15:20:00
7:40 AM,-0.4,-4.0,85,30.16,4.0,South,3.5,-,N/A,,Overcast,190,2012-12-31 15:40:00
8:00 AM,1.4,-2.2,85,30.18,7.0,West,3.5,-,N/A,,Overcast,260,2012-12-31 16:00:00
8:20 AM,-0.4,-4.0,85,30.20,9.0,WSW,5.8,-,N/A,,Overcast,240,2012-12-31 16:20:00
8:40 AM,-0.4,-5.8,78,30.21,9.0,WSW,5.8,-,N/A,,Overcast,240,2012-12-31 16:40:00
9:00 AM,1.4,-2.2,85,30.21,9.0,SW,4.6,-,N/A,,Overcast,220,2012-12-31 17:00:00
9:20 AM,3.2,-2.2,78,30.21,10.0,SSW,5.8,-,N/A,,Mostly Cloudy,210,2012-12-31 17:20:00
9:40 AM,8.6,1.4,73,30.20,10.0,South,3.5,-,N/A,,Scattered Clouds,190,2012-12-31 17:40:00
10:00 AM,10.4,5.0,79,30.21,10.0,Calm,Calm,-,N/A,,Clear,0,2012-12-31 18:00:00
10:20 AM,14.0,5.0,67,30.21,10.0,Calm,Calm,-,N/A,,Clear,0,2012-12-31 18:20:00
10:40 AM,14.0,5.0,67,30.21,10.0,WSW,4.6,-,N/A,,Clear,250,2012-12-31 18:40:00
11:00 AM,14.0,5.0,67,30.21,10.0,SW,5.8,-,N/A,,Clear,220,2012-12-31 19:00:00
11:20 AM,15.8,6.8,68,30.20,10.0,Calm,Calm,-,N/A,,Clear,0,2012-12-31 19:20:00
11:40 AM,15.8,6.8,68,30.18,10.0,SW,4.6,-,N/A,,Clear,220,2012-12-31 19:40:00
12:00 PM,17.6,6.8,63,30.18,10.0,Calm,Calm,-,N/A,,Clear,0,2012-12-31 20:00:00
12:20 PM,17.6,6.8,63,30.17,10.0,Calm,Calm,-,N/A,,Clear,0,2012-12-31 20:20:00
12:40 PM,19.4,6.8,58,30.17,10.0,Calm,Calm,-,N/A,,Clear,0,2012-12-31 20:40:00
1:00 PM,19.4,6.8,58,30.17,10.0,Calm,Calm,-,N/A,,Clear,0,2012-12-31 21:00:00
1:20 PM,19.4,6.8,58,30.17,10.0,Calm,Calm,-,N/A,,Clear,0,2012-12-31 21:20:00
1:40 PM,19.4,6.8,58,30.16,10.0,Calm,Calm,-,N/A,,Clear,0,2012-12-31 21:40:00
2:00 PM,21.2,6.8,54,30.17,10.0,Calm,Calm,-,N/A,,Clear,0,2012-12-31 22:00:00
2:20 PM,21.2,6.8,54,30.16,10.0,South,4.6,-,N/A,,Clear,190,2012-12-31 22:20:00
2:40 PM,19.4,6.8,58,30.16,10.0,SW,4.6,-,N/A,,Partly Cloudy,220,2012-12-31 22:40:00
3:00 PM,19.4,6.8,58,30.16,10.0,Calm,Calm,-,N/A,,Partly Cloudy,0,2012-12-31 23:00:00
3:20 PM,21.2,5.0,50,30.16,10.0,Calm,Calm,-,N/A,,Clear,0,2012-12-31 23:20:00
3:40 PM,19.4,5.0,54,30.16,10.0,Calm,Calm,-,N/A,,Clear,0,2012-12-31 23:40:00
4:20 PM,12.2,1.4,62,30.17,10.0,Calm,Calm,-,N/A,,Clear,0,2013-01-01 00:20:00
4:40 PM,8.6,-0.4,67,30.17,10.0,Calm,Calm,-,N/A,,Clear,0,2013-01-01 00:40:00
5:00 PM,1.4,-4.0,78,30.17,10.0,Calm,Calm,-,N/A,,Clear,0,2013-01-01 01:00:00
5:20 PM,-0.4,-7.6,72,30.17,10.0,SSW,6.9,-,N/A,,Clear,200,2013-01-01 01:20:00
5:40 PM,-2.2,-7.6,78,30.17,10.0,SSW,6.9,-,N/A,,Clear,210,2013-01-01 01:40:00
6:00 PM,-5.8,-11.2,77,30.18,10.0,Calm,Calm,-,N/A,,Clear,0,2013-01-01 02:00:00
6:20 PM,-4.0,-9.4,78,30.18,10.0,SSE,3.5,-,N/A,,Clear,150,2013-01-01 02:20:00
6:40 PM,-4.0,-9.4,78,30.18,10.0,South,3.5,-,N/A,,Clear,190,2013-01-01 02:40:00
7:00 PM,-7.6,-11.2,84,30.18,10.0,SW,5.8,-,N/A,,Clear,220,2013-01-01 03:00:00
7:20 PM,-7.6,-9999,N/A,30.17,10.0,SSW,4.6,-,N/A,,Clear,200,2013-01-01 03:20:00
7:40 PM,-9.4,-14.8,77,30.17,10.0,West,3.5,-,N/A,,Clear,260,2013-01-01 03:40:00
8:00 PM,-7.6,-11.2,84,30.17,10.0,SSW,5.8,-,N/A,,Clear,210,2013-01-01 04:00:00
8:20 PM,-2.2,-7.6,78,30.17,10.0,SSW,6.9,-,N/A,,Clear,200,2013-01-01 04:20:00
8:40 PM,-0.4,-5.8,78,30.18,10.0,South,8.1,-,N/A,,Clear,170,2013-01-01 04:40:00
9:20 PM,-0.4,-5.8,78,30.19,10.0,SW,6.9,-,N/A,,Clear,220,2013-01-01 05:20:00
9:40 PM,-7.6,-9999,N/A,30.20,10.0,SW,8.1,-,N/A,,Clear,220,2013-01-01 05:40:00
10:00 PM,-4.0,-9.4,78,30.21,10.0,SSW,6.9,-,N/A,,Clear,200,2013-01-01 06:00:00
10:20 PM,-5.8,-11.2,77,30.22,10.0,South,6.9,-,N/A,,Clear,190,2013-01-01 06:20:00
10:40 PM,-9.4,-14.8,77,30.22,10.0,SSW,5.8,-,N/A,,Clear,200,2013-01-01 06:40:00
11:00 PM,-7.6,-13.0,77,30.22,10.0,SSW,5.8,-,N/A,,Clear,200,2013-01-01 07:00:00
11:20 PM,-7.6,-13.0,77,30.22,10.0,SSW,5.8,-,N/A,,Clear,210,2013-01-01 07:20:00
11:40 PM,-9.4,-14.8,77,30.23,10.0,SW,8.1,-,N/A,,Clear,220,2013-01-01 07:40:00